Location: Twillingate Astronomical Observatory
(49.6173°N, 54.7580°W)
Time: 07:36:25
(UTC-02:-30)

Amateur Radio Satellites - All Passes

Search period start: 19 April 2014 07:06
Search period end: 20 April 2014 07:06
Location: Twillingate Astronomical Observatory, 49.6173°N, 54.7580°W

Satellite Date Start Highest point End Downlink Frequencies (MHz)
Time Altitude Azimuth
AO-7 19 Apr 07:17:28 07:25:19 49° 302° (WNW) 07:33:11 29.400 - 29.500 MHz
STRAND 1 19 Apr 07:23:23 07:28:20 49° 260° (W) 07:33:19 ?
KITSAT 1 19 Apr 07:37:02 07:43:35 26° 351° (N) 07:50:09 435.175 FM
RS-15 19 Apr 07:43:14 07:54:18 66° 120° (ESE) 08:05:03 29.354 - 29.394 USB, Beacon 29.352 USB
Sapphire 19 Apr 07:44:40 07:48:30 19° 26° (NNE) 07:52:20 437.095 MHz 1200 baud AX-25 AFSK
JAS-1B 19 Apr 07:54:23 07:56:03 11° 316° (NW) 07:57:41 435.800 - 435.900 CW/SSB
Hamsat 19 Apr 07:54:47 07:59:06 65° 287° (WNW) 08:03:25 145.90 MHz
MaSat-1 19 Apr 08:03:15 08:05:32 21° 246° (WSW) 08:08:05 437.345 MHz
SO-67 19 Apr 08:04:10 08:07:23 33° 97° (E) 08:10:35 435.3500 MHz FM
JAS-2 19 Apr 08:09:32 08:14:44 54° 101° (E) 08:20:22 435.800 - 435.900 CW/SSB, 435.910 FM
PCSat 19 Apr 08:29:28 08:34:14 30° 37° (NE) 08:38:59 145.825 MHz
HO-68 19 Apr 08:32:02 08:33:33 11° 81° (E) 08:35:04 435.675 MHz FM
AO-7 19 Apr 09:11:35 09:16:14 17° 326° (NW) 09:20:54 29.400 - 29.500 MHz
Sapphire 19 Apr 09:27:42 09:33:05 59° 49° (NE) 09:38:25 437.095 MHz 1200 baud AX-25 AFSK
KITSAT 1 19 Apr 09:34:52 09:41:50 30° 20° (NNE) 09:48:45 435.175 FM
SO-67 19 Apr 09:37:43 09:40:23 21° 295° (WNW) 09:43:02 435.3500 MHz FM
JAS-2 19 Apr 09:55:19 09:59:40 27° 299° (WNW) 10:04:15 435.800 - 435.900 CW/SSB, 435.910 FM
RS-15 19 Apr 09:56:16 10:07:07 54° 327° (NNW) 10:17:48 29.354 - 29.394 USB, Beacon 29.352 USB
PCSat 19 Apr 10:12:43 10:18:07 68° 239° (WSW) 10:23:29 145.825 MHz
HO-68 19 Apr 10:15:50 10:22:54 56° 102° (ESE) 10:29:55 435.675 MHz FM
Saudisat 1A 19 Apr 10:51:24 10:54:04 16° 112° (ESE) 10:56:44 436.775 MHz
FUNcube-1 19 Apr 10:54:32 10:57:46 21° 92° (E) 11:01:01 145.950 - 145.970 MHz USB
Oscar 11 19 Apr 11:04:50 11:09:13 73° 103° (ESE) 11:13:34 145.825 FM, Beacon 2401.500 USB
Sapphire 19 Apr 11:11:39 11:16:11 28° 249° (WSW) 11:20:42 437.095 MHz 1200 baud AX-25 AFSK
KITSAT 1 19 Apr 11:30:43 11:38:50 67° 47° (NE) 11:46:52 435.175 FM
PCSat 19 Apr 11:58:43 12:00:32 12° 258° (WSW) 12:02:21 145.825 MHz
HO-68 19 Apr 12:03:55 12:10:23 38° 302° (WNW) 12:16:51 435.675 MHz FM
RS-15 19 Apr 12:12:26 12:22:22 36° 359° (N) 12:32:17 29.354 - 29.394 USB, Beacon 29.352 USB
AO-27 19 Apr 12:13:35 12:14:49 11° 49° (NE) 12:16:04 436.795 MHz FM
ITAMSAT 1 19 Apr 12:23:16 12:25:27 13° 51° (NE) 12:27:38 435.822 SSB
Oscar 19 19 Apr 12:26:35 12:30:25 22° 58° (ENE) 12:34:16 437.125 CW, 437.150 USB
Saudisat 1A 19 Apr 12:28:37 12:33:06 84° 310° (NW) 12:37:36 436.775 MHz
FUNcube-1 19 Apr 12:30:22 12:34:25 46° 290° (WNW) 12:38:32 145.950 - 145.970 MHz USB
AO-Echo 19 Apr 12:33:01 12:34:53 12° 52° (NE) 12:36:45 ?
Oscar 16 19 Apr 12:34:22 12:38:33 26° 60° (ENE) 12:42:45 437.025 USB, Beacon 2401.1428
Oscar 11 19 Apr 12:42:15 12:44:54 16° 301° (WNW) 12:47:34 145.825 FM, Beacon 2401.500 USB
AO-7 19 Apr 12:53:16 12:54:26 10° 21° (NNE) 12:55:35 29.400 - 29.500 MHz
Uribyol 2 19 Apr 13:09:00 13:13:21 28° 61° (ENE) 13:17:42 436.500 FM
KITSAT 1 19 Apr 13:26:35 13:33:51 38° 249° (WSW) 13:41:04 435.175 FM
Gurwin Techsat 1B 19 Apr 13:41:18 13:44:59 20° 56° (NE) 13:48:40 435.225 FM
AO-27 19 Apr 13:48:13 13:53:16 55° 69° (ENE) 13:58:20 436.795 MHz FM
HO-68 19 Apr 13:54:17 13:56:10 11° 325° (NW) 13:58:03 435.675 MHz FM
ITAMSAT 1 19 Apr 13:58:53 14:04:01 65° 71° (ENE) 14:09:09 435.822 SSB
Oscar 19 19 Apr 14:04:10 14:09:17 69° 257° (WSW) 14:14:29 437.125 CW, 437.150 USB
AO-Echo 19 Apr 14:07:36 14:12:45 62° 71° (ENE) 14:17:47 ?
Saudisat 1A 19 Apr 14:09:53 14:13:21 21° 332° (NNW) 14:16:49 436.775 MHz
Oscar 16 19 Apr 14:12:34 14:17:36 55° 260° (W) 14:22:42 437.025 USB, Beacon 2401.1428
RS-15 19 Apr 14:27:01 14:37:40 53° 32° (NNE) 14:48:25 29.354 - 29.394 USB, Beacon 29.352 USB
TMSAT-1 19 Apr 14:28:22 14:33:00 32° 63° (ENE) 14:37:39 436.925 FM
Uosat F 19 Apr 14:28:53 14:31:35 15° 53° (NE) 14:34:17 435.120 FM
AO-7 19 Apr 14:37:49 14:44:28 28° 47° (NE) 14:51:07 29.400 - 29.500 MHz
Uribyol 2 19 Apr 14:47:37 14:52:37 49° 260° (W) 14:57:38 436.500 FM
JAS-1B 19 Apr 14:59:40 15:06:40 40° 63° (ENE) 15:12:40 435.800 - 435.900 CW/SSB
SO-50 19 Apr 15:07:25 15:09:24 13° 109° (ESE) 15:11:25 436.795 FM
OPAL 19 Apr 15:13:00 15:17:19 26° 95° (E) 15:21:37 ?
Gurwin Techsat 1B 19 Apr 15:19:02 15:24:21 81° 256° (WSW) 15:29:43 435.225 FM
AO-27 19 Apr 15:28:55 15:33:07 25° 268° (W) 15:37:20 436.795 MHz FM
ITAMSAT 1 19 Apr 15:40:11 15:43:59 20° 269° (W) 15:47:49 435.822 SSB
ISS 19 Apr 15:47:37 15:50:01 18° 140° (SE) 15:52:25 145.800 FM
AO-Echo 19 Apr 15:47:58 15:51:55 22° 269° (W) 15:55:49 ?
Oscar 19 19 Apr 15:49:02 15:49:38 10° 277° (W) 15:50:15 437.125 CW, 437.150 USB
Saudisat 1A 19 Apr 15:52:51 15:54:36 12° 356° (N) 15:56:20 436.775 MHz
Uosat F 19 Apr 16:04:35 16:09:37 79° 73° (ENE) 16:14:40 435.120 FM
TMSAT-1 19 Apr 16:07:45 16:12:48 45° 262° (W) 16:17:53 436.925 FM
AO-7 19 Apr 16:28:03 16:36:21 89° 69° (ENE) 16:44:42 29.400 - 29.500 MHz
RS-15 19 Apr 16:39:47 16:50:34 67° 240° (WSW) 17:01:34 29.354 - 29.394 USB, Beacon 29.352 USB
SO-50 19 Apr 16:44:45 16:49:15 83° 128° (SE) 16:53:48 436.795 FM
JAS-1B 19 Apr 16:49:38 16:57:16 49° 260° (W) 17:03:44 435.800 - 435.900 CW/SSB
OPAL 19 Apr 16:51:25 16:56:30 54° 294° (WNW) 17:01:34 ?
Gurwin Techsat 1B 19 Apr 17:02:50 17:05:12 13° 275° (W) 17:07:34 435.225 FM
Hamsat 19 Apr 17:17:55 17:20:59 20° 62° (ENE) 17:24:04 145.90 MHz
ISS 19 Apr 17:23:01 17:26:21 76° 158° (SSE) 17:29:43 145.800 FM
UOSAT-12 19 Apr 17:29:22 17:32:34 19° 112° (ESE) 17:35:49 437.025 FM, 437.400 FM
Saudisat 1A 19 Apr 17:33:10 17:36:00 16° 21° (NNE) 17:38:49 436.775 MHz
Uosat F 19 Apr 17:45:58 17:49:02 16° 271° (W) 17:52:05 435.120 FM
AO-7 19 Apr 18:23:56 18:30:13 24° 271° (W) 18:36:34 29.400 - 29.500 MHz
SO-50 19 Apr 18:26:42 18:30:22 24° 330° (NNW) 18:34:05 436.795 FM
JAS-2 19 Apr 18:26:56 18:32:05 38° 65° (ENE) 18:36:55 435.800 - 435.900 CW/SSB, 435.910 FM
OPAL 19 Apr 18:32:39 18:34:19 12° 314° (NW) 18:35:59 ?
SO-67 19 Apr 18:42:25 18:45:17 24° 67° (ENE) 18:48:09 435.3500 MHz FM
Hamsat 19 Apr 18:52:32 18:56:38 52° 261° (W) 19:00:49 145.90 MHz
RS-15 19 Apr 18:54:13 19:00:42 18° 263° (W) 19:07:18 29.354 - 29.394 USB, Beacon 29.352 USB
ISS 19 Apr 18:59:54 19:03:13 58° 358° (N) 19:06:34 145.800 FM
HO-68 19 Apr 19:04:42 19:09:12 18° 44° (NE) 19:13:42 435.675 MHz FM
UOSAT-12 19 Apr 19:07:37 19:12:13 74° 312° (NW) 19:16:55 437.025 FM, 437.400 FM
Saudisat 1A 19 Apr 19:12:18 19:16:38 49° 43° (NE) 19:20:54 436.775 MHz
STRAND 1 19 Apr 19:29:27 19:34:16 40° 98° (E) 19:39:02 ?
SO-50 19 Apr 20:10:30 20:12:33 13° 355° (N) 20:14:37 436.795 FM
JAS-2 19 Apr 20:12:02 20:17:17 36° 263° (W) 20:22:10 435.800 - 435.900 CW/SSB, 435.910 FM
SO-67 19 Apr 20:15:19 20:18:22 27° 265° (W) 20:21:26 435.3500 MHz FM
Oscar 11 19 Apr 20:30:30 20:32:46 14° 57° (ENE) 20:35:02 145.825 FM, Beacon 2401.500 USB
ISS 19 Apr 20:36:45 20:40:08 89° 192° (SSW) 20:43:30 145.800 FM
HO-68 19 Apr 20:48:37 20:55:39 65° 66° (ENE) 21:02:44 435.675 MHz FM
UOSAT-12 19 Apr 20:49:37 20:53:10 21° 334° (NNW) 20:56:46 437.025 FM, 437.400 FM
Saudisat 1A 19 Apr 20:52:17 20:56:02 28° 243° (WSW) 20:59:45 436.775 MHz
STRAND 1 19 Apr 21:08:51 21:13:23 33° 297° (WNW) 21:17:54 ?
SO-50 19 Apr 21:52:01 21:54:58 17° 20° (NNE) 21:57:56 436.795 FM
FUNcube-1 19 Apr 21:55:30 21:59:06 29° 66° (ENE) 22:02:42 145.950 - 145.970 MHz USB
Oscar 11 19 Apr 22:04:03 22:08:22 84° 256° (WSW) 22:12:43 145.825 FM, Beacon 2401.500 USB
MaSat-1 19 Apr 22:10:18 22:12:59 44° 118° (ESE) 22:15:26 437.345 MHz
ISS 19 Apr 22:13:50 22:16:35 24° 217° (SW) 22:19:20 145.800 FM
UOSAT-12 19 Apr 22:32:50 22:35:03 13° 359° (N) 22:37:17 437.025 FM, 437.400 FM
HO-68 19 Apr 22:37:43 22:43:52 31° 267° (W) 22:50:03 435.675 MHz FM
FUNcube-1 19 Apr 23:31:43 23:35:30 32° 264° (W) 23:39:16 145.950 - 145.970 MHz USB
SO-50 19 Apr 23:32:09 23:36:37 47° 42° (NE) 23:41:09 436.795 FM
Oscar 11 19 Apr 23:45:01 23:45:17 10° 275° (W) 23:45:33 145.825 FM, Beacon 2401.500 USB
MaSat-1 19 Apr 23:50:58 23:51:36 11° 315° (NW) 23:52:14 437.345 MHz
UOSAT-12 20 Apr 00:13:35 00:17:00 19° 23° (NNE) 00:20:24 437.025 FM, 437.400 FM
Sapphire 20 Apr 00:15:24 00:19:18 21° 107° (ESE) 00:23:13 437.095 MHz 1200 baud AX-25 AFSK
OPAL 20 Apr 00:56:21 00:58:58 14° 49° (NE) 01:01:37 ?
PCSat 20 Apr 00:58:40 01:03:47 46° 116° (ESE) 01:08:57 145.825 MHz
SO-50 20 Apr 01:12:58 01:17:05 32° 242° (WSW) 01:21:15 436.795 FM
UOSAT-12 20 Apr 01:53:23 01:58:05 60° 45° (NE) 02:02:45 437.025 FM, 437.400 FM
Sapphire 20 Apr 01:56:44 02:02:09 77° 307° (NW) 02:07:37 437.095 MHz 1200 baud AX-25 AFSK
AO-27 20 Apr 01:58:26 02:00:59 14° 86° (E) 02:03:32 436.795 MHz FM
KITSAT 1 20 Apr 02:06:07 02:11:55 22° 103° (ESE) 02:17:43 435.175 FM
ITAMSAT 1 20 Apr 02:08:31 02:11:45 17° 88° (E) 02:14:59 435.822 SSB
Oscar 19 20 Apr 02:11:35 02:16:12 31° 95° (E) 02:20:48 437.125 CW, 437.150 USB
AO-Echo 20 Apr 02:12:22 02:14:39 13° 86° (E) 02:16:53 ?
Oscar 16 20 Apr 02:19:48 02:24:39 38° 97° (E) 02:29:30 437.025 USB, Beacon 2401.1428
OPAL 20 Apr 02:31:58 02:37:00 72° 69° (ENE) 02:42:07 ?
PCSat 20 Apr 02:42:14 02:47:19 40° 317° (NW) 02:52:26 145.825 MHz
Uribyol 2 20 Apr 02:55:44 03:00:40 42° 98° (E) 03:05:34 436.500 FM
Oscar 10/S400 20 Apr 03:25:32 03:46:53 29° 131° (SE) 05:33:35 145.825 - 145.975 CW/USB, Beacon 145.810 USB
Gurwin Techsat 1B 20 Apr 03:31:09 03:35:48 30° 94° (E) 03:40:24 435.225 FM
UOSAT-12 20 Apr 03:34:07 03:37:56 25° 245° (WSW) 03:41:43 437.025 FM, 437.400 FM
AO-27 20 Apr 03:36:05 03:41:18 87° 105° (ESE) 03:46:29 436.795 MHz FM
Sapphire 20 Apr 03:42:16 03:46:28 22° 330° (NNW) 03:50:41 437.095 MHz 1200 baud AX-25 AFSK
ITAMSAT 1 20 Apr 03:46:42 03:51:54 80° 287° (WNW) 03:57:04 435.822 SSB
AO-Echo 20 Apr 03:49:19 03:54:10 86° 286° (WNW) 03:58:53 ?
Oscar 19 20 Apr 03:50:46 03:55:41 43° 294° (WNW) 04:00:34 437.125 CW, 437.150 USB
KITSAT 1 20 Apr 03:58:04 04:06:11 83° 125° (SE) 04:14:22 435.175 FM
Oscar 16 20 Apr 03:59:17 04:03:59 36° 296° (WNW) 04:08:41 437.025 USB, Beacon 2401.1428
Uosat F 20 Apr 04:08:59 04:12:18 18° 89° (E) 04:15:36 435.120 FM
OPAL 20 Apr 04:12:58 04:16:26 18° 268° (W) 04:19:57 ?
TMSAT-1 20 Apr 04:18:46 04:23:58 53° 100° (E) 04:29:08 436.925 FM
AO-7 20 Apr 04:25:30 04:31:47 23° 89° (E) 04:38:02 29.400 - 29.500 MHz
PCSat 20 Apr 04:29:06 04:32:17 15° 341° (NNW) 04:35:28 145.825 MHz
JAS-1B 20 Apr 04:29:30 04:34:38 33° 95° (E) 04:39:49 435.800 - 435.900 CW/SSB
Uribyol 2 20 Apr 04:35:28 04:40:02 32° 297° (WNW) 04:44:36 436.500 FM
RS-15 20 Apr 05:05:44 05:08:58 12° 92° (E) 05:12:10 29.354 - 29.394 USB, Beacon 29.352 USB
Gurwin Techsat 1B 20 Apr 05:10:54 05:15:58 46° 293° (WNW) 05:21:01 435.225 FM
STRAND 1 20 Apr 05:13:11 05:16:19 17° 55° (NE) 05:19:27 ?
AO-27 20 Apr 05:16:49 05:20:10 18° 305° (NW) 05:23:32 436.795 MHz FM
ITAMSAT 1 20 Apr 05:27:44 05:30:37 15° 307° (NW) 05:33:30 435.822 SSB
AO-Echo 20 Apr 05:29:39 05:32:13 15° 306° (NW) 05:34:46 ?
Sapphire 20 Apr 05:29:46 05:32:01 12° 355° (N) 05:34:16 437.095 MHz 1200 baud AX-25 AFSK
Uosat F 20 Apr 05:46:39 05:51:39 72° 288° (WNW) 05:56:37 435.120 FM
KITSAT 1 20 Apr 05:55:01 06:02:28 38° 329° (NNW) 06:09:57 435.175 FM
TMSAT-1 20 Apr 05:59:13 06:03:38 27° 299° (WNW) 06:08:01 436.925 FM
PCSat 20 Apr 06:15:41 06:18:06 13° 8° (N) 06:20:31 145.825 MHz
AO-7 20 Apr 06:17:19 06:25:42 89° 110° (ESE) 06:34:03 29.400 - 29.500 MHz
JAS-1B 20 Apr 06:20:11 06:25:32 42° 296° (WNW) 06:30:53 435.800 - 435.900 CW/SSB
MaSat-1 20 Apr 06:29:10 06:31:50 39° 55° (NE) 06:34:53 437.345 MHz
Hamsat 20 Apr 06:34:29 06:37:51 21° 92° (E) 06:41:12 145.90 MHz
STRAND 1 20 Apr 06:49:42 06:54:50 89° 74° (ENE) 06:59:58 ?
